Regional Weather Roundup
Issued by NWS

Home | Current Version | Previous Version | Text Only | Print | Product List | Glossary On
Versions: 1 2 3 4 5 6 7 8 9 10 11 12 13 14 15 16 17 18 19 20 21 22 23 24 25 26 27 28 29 30 31 32 33 34 35 36 37 38 39 40 41 42 43 44 45 46 47 48 49 50
000
ASUS43 KMPX 011201
RWRMN
WEATHER ROUNDUP FOR MINNESOTA
NATIONAL WEATHER SERVICE TWIN CITIES/CHANHASSEN MN
700 AM CDT WED APR 01 2015


NOTE: "FAIR" INDICATES FEW OR NO CLOUDS BELOW 12,000 FEET WITH NO
SIGNIFICANT WEATHER AND/OR OBSTRUCTIONS TO VISIBILITY. N/A MEANS
CURRENT SKY AND/OR WEATHER CONDITIONS ARE NOT AVAILABLE.

MNZ060>063-068>070-011300-
   Twin Cities Metro

CITY           SKY/WX    TMP DP  RH WIND       PRES   REMARKS
TWIN CITIES    PTCLDY    44  33  65 E9        29.78F
6HR MIN TEMP:  43; 6HR MAX TEMP:  48;

ST PAUL        CLEAR     44  32  62 SE12      29.80F
CRYSTAL        CLEAR     49  33  54 SE12      29.75F
BLAINE         CLEAR     46  32  57 SE10      29.77F
LAKEVILLE      CLEAR     37  32  81 SE3       29.78F
EDEN PRAIRIE   CLEAR     47  33  58 E9        29.76F
6HR MIN TEMP:  46; 6HR MAX TEMP:  51;

SOUTH ST PAUL  CLEAR     46  32  59 SE8       29.79F
LAKE ELMO      FAIR      43  30  61 SE5       29.81F
$$
MNZ001>005-007-008-013>017-022>024-027-028-011300-
   Northwest Minnesota

CITY           SKY/WX    TMP DP  RH WIND       PRES   REMARKS
BEMIDJI        PTCLDY    39  28  66 SE15      29.63F
HALLOCK        CLOUDY    46  30  53 SE21      29.48F
ROSEAU         FAIR      43  30  61 E10G16    29.58F
WARROAD        PTCLDY    36  30  80 E8        29.62F
THIEF RVR FALL PTCLDY    43  28  56 SE15      29.54F
CROOKSTON      MOCLDY    45  30  57 SE15      29.51F
FOSSTON        MOCLDY    45  28  53 SE17G26   29.55F
DETROIT LAKES  MOCLDY    45  32  61 SE15      29.58F
MOORHEAD       MOCLDY    52  34  50 SE16      29.51F
PARK RAPIDS    PTCLDY    45  26  47 SE17G25   29.63F
MAHNOMEN       FAIR      48  29  47 SE18G25   29.54F
$$
MNZ006-009>011-018-025>026-011300-
   North Central Minnesota

CITY           SKY/WX    TMP DP  RH WIND       PRES   REMARKS
BAUDETTE       MOCLDY    37  29  72 SE14      29.64F
FLAG ISLAND    PTCLDY    36  28  75 SE14G20   29.63F
INTL FALLS     CLOUDY    34  29  82 SE12      29.74F WCI  25
6HR MIN TEMP:  32; 6HR MAX TEMP:  35;

WASKISH        FAIR      39  30  70 E14G20    29.64F
BIG FORK       MOCLDY    37  30  75 SE13G21   29.71F
LONGVILLE      PTCLDY    37  28  70 SE8       29.69F
GRAND RAPIDS   CLOUDY    34  27  75 SE9G21    29.74F WCI  26
CRANE LAKE     MOCLDY    30  28  93 SE2       29.84F
ORR            PTCLDY    34  28  80 SE9G17    29.76F WCI  26
COOK           PTCLDY    34  28  80 SE10G17   29.81F WCI  26
WALKER         FAIR      39  28  64 E7        29.67F
$$
MNZ012-019>021-037-011300-
   Northeast Minnesota

CITY           SKY/WX    TMP DP  RH WIND       PRES   REMARKS
DULUTH         FOG       30  28  92 E15       29.85F VSB 1/4 WCI  19
6HR MIN TEMP:  30; 6HR MAX TEMP:  32;

ELY            MOCLDY    30  27  86 SE10      29.83F WCI  21
HIBBING        MOCLDY    33  28  81 SE10      29.81F WCI  25
EVELETH        PTCLDY    32  28  86 E5        29.84F WCI  27
DULUTH HARBOR  CLOUDY    34  30  86 NE18      29.91S WCI  23
TWO HARBORS    CLOUDY    32  27  80 E10       29.88F WCI  24
SILVER BAY     CLOUDY    30  28  93 NE7       29.89F WCI  23
GRAND MARAIS     N/A     31  28  89 NE6       29.98F WCI  25
G MARAIS ARPRT FOG       25  21  86 E5        29.91F VSB 1/4 WCI  19
$$
MNZ029>031-032-039>041-046>048-054>057-064-011300-
   West Central Minnesota

CITY           SKY/WX    TMP DP  RH WIND       PRES   REMARKS
FERGUS FALLS   PTCLDY    48  28  46 SE17      29.57F
WHEATON        CLEAR     41  32  70 SE17      29.54F
MORRIS         CLEAR     45  34  65 SE17      29.58F
ALEXANDRIA     FAIR      43  32  65 SE13      29.63F
ELBOW LAKE     FAIR      47  33  58 SE16      29.57F
WADENA         PTCLDY    43  28  56 SE16      29.62F
GLENWOOD       CLEAR     39  34  81 E6        29.64F
APPLETON       CLEAR     46  34  61 SE9       29.59F
BENSON         CLEAR     46  32  57 S12       29.61F
ORTONVILLE     CLEAR     45  32  61 SE9       29.56F
MADISON        CLEAR     61  28  29 S28G36    29.55F
WILLMAR        FAIR      45  34  65 SE12      29.67F
$$
MNZ033>034-036-042>043-049>051-058-059-011300-
   Central Minnesota

CITY           SKY/WX    TMP DP  RH WIND       PRES   REMARKS
ST CLOUD       CLEAR     46  30  53 E10       29.72F
6HR MIN TEMP:  46; 6HR MAX TEMP:  48;

SAUK CENTRE    FAIR      43  33  67 SE13G18   29.66F
PAYNESVILLE    CLEAR     42  32  67 E13       29.68S
AITKIN         PTCLDY    39  30  70 E8        29.72F
PINE RIVER     PTCLDY    37  28  70 SE10      29.73F
BRAINERD       PTCLDY    39  28  64 SE12      29.71F
STAPLES        CLEAR     45  27  49 SE9       29.65F
LONG PRAIRIE   FAIR      41  32  70 E9G16     29.67F
LITTLE FALLS   CLEAR     43  28  56 SE10      29.70F
LITCHFIELD     CLEAR     48  34  57 CALM      29.70F
BUFFALO        CLEAR     46  32  57 SE5       29.74F
MAPLE LAKE     CLEAR     44  34  69 SE7       29.73F
$$
MNZ037-044-045-052-053-011300-
   East Central Minnesota

CITY           SKY/WX    TMP DP  RH WIND       PRES   REMARKS
PRINCETON      PTCLDY    45  28  53 E7        29.75F
MORA           PTCLDY    36  30  80 E6        29.79F
CAMBRIDGE      PTCLDY    45  30  57 E7        29.75F
RUSH CITY      PTCLDY    40  30  66 E7        29.79F
MOOSE LAKE     PTCLDY    32  30  93 CALM      29.81F
HINCKLEY       FAIR      36  32  87 E10       29.80F
CLOQUET        CLOUDY    30  30 100 E9        29.83F WCI  22
MCGREGOR       PTCLDY    36  32  87 E14       29.77F
$$
MNZ071>073-080-081-089-090-097-098-011300-
   Southwest Minnesota

CITY           SKY/WX    TMP DP  RH WIND       PRES   REMARKS
MONTEVIDEO     PTCLDY    46  34  61 S8        29.63F
GRANITE FALLS  PTCLDY    47  32  56 SE14      29.66S
CANBY          FAIR      60  30  31 S24G33    29.58F
MARSHALL       FAIR      59  30  33 SW35G43   29.63F
REDWOOD FALLS  PTCLDY    43  33  68 SE9       29.68S
OLIVIA         PTCLDY    43  32  65 SE9       29.67F
PIPESTONE      CLEAR     52  30  43 S21       29.66F
WINDOM         CLEAR     54  30  40 S15G22    29.71S
WORTHINGTON    CLEAR     54  30  40 S23G29    29.72F
JACKSON        CLEAR     52  32  46 S15       29.74S
TRACY          CLEAR     60  32  35 S21G35    29.66F
SLAYTON        CLEAR     54  26  34 S23G30    29.68F
$$
MNZ065>067-074>077-082>085-091>093-011300-
   South Central Minnesota

CITY           SKY/WX    TMP DP  RH WIND       PRES   REMARKS
MANKATO        CLEAR     46  32  57 S14       29.76S
NEW ULM        CLEAR     46  32  57 S14       29.71F
ST JAMES       CLEAR     46  32  57 S13       29.73F
FAIRMONT       CLEAR     41  27  56 S10       29.75S
GLENCOE        CLEAR     45  37  72 SE9       29.73S
FARIBAULT      PTCLDY    48  34  57 S13G21    29.79S
OWATONNA       PTCLDY    46  34  61 SE16      29.80S
WASECA         PTCLDY    45  34  65 SE10      29.80S
ALBERT LEA     CLEAR     43  34  70 S10       29.81F
$$
MNZ078>079-086>088-094>096-011300-
   Southeast Minnesota

CITY           SKY/WX    TMP DP  RH WIND       PRES   REMARKS
ROCHESTER      CLEAR     44  32  62 S14       29.85S
6HR MIN TEMP:  38; 6HR MAX TEMP:  44;

RED WING       FAIR      45  30  57 SE12      29.82F
STANTON        CLEAR     49  33  54 S9        29.78S
DODGE CENTER   PTCLDY    43  36  75 S12       29.82S
WINONA         CLEAR     37  32  81 S6        29.90S
AUSTIN         CLEAR     45  34  65 SE8       29.83F
PRESTON        CLEAR     44  31  62 S9        29.87S
$$
ABBREVIATIONS USED IN REMARKS
   TC - TEMPERATURES IN CELSIUS
  WCI - WIND CHILL INDEX
   HX - HEAT INDEX
  VSB - VISIBILITY
$$


USA.gov is the U.S. government's official web portal to all federal, state and local government web resources and services.